Regional Weather Roundup
Issued by NWS Tiyan, Guam

Home | Current Version | Previous Version | Text Only | Print | Product List | Glossary On
Versions: 1 2 3 4 5 6 7 8 9 10 11 12 13 14 15 16 17 18 19 20 21 22 23 24 25 26 27
000
ASGM40 PGUM 180412
RWRGUM
WEATHER ROUNDUP FOR THE MARIANAS
NATIONAL WEATHER SERVICE TIYAN GU
200 PM CHST SAT NOV 18 2017

GUZ001>004-180500-
MARIANA ISLANDS-

CITY           SKY/WX    TMP DP  RH WIND       PRES   REMARKS
GUAM AIRPORT   PTSUNNY   88  79  74 SE9G18    29.78F HX 102
ANDERSEN AFB   PTSUNNY   84  77  79 E15       29.78F HX  94
ROTA AIRPORT   PTSUNNY   84  75  74 E17       29.79F HX  92
TINIAN AP      MOSUNNY   86  75  70 E16       29.78F HX  95
SAIPAN AP      MOSUNNY   90  75  62 E17       29.79S HX 100

$$





USA.gov is the U.S. government's official web portal to all federal, state and local government web resources and services.